This demonstration page uses our WeatherBlox Daily Observations layout. Learn more.

Hourly Observations for October 25, 2019

Temp ( °F °C ) Dew Point ( °F °C ) Humidity (%) Winds ( mph kmh ) Pressure ( in mb ) Visibility ( mi km ) Precip ( " mm )
12:43 am 00:43 Clear with Mist and Fog 29 -1.7 25 -3.9 85 85 N 3 6 30.45 1031 2.5 4.02336 0 0
12:54 am 00:54 Clear with Mist and Fog 27 -2.8 24 -4.4 89 89 Calm 30.42 1030 3 4.828032 0 0
1:29 am 01:29 Clear with Mist and Fog 30 -1.1 26 -3.3 85 85 Calm 30.45 1031 2.5 4.02336 0 0
1:45 am 01:45 Hazy 30 -1.1 25 -3.9 82 82 Calm 30.45 1031 6 9.656064 0 0
1:54 am 01:54 Clear 28 -2.2 24 -4.4 85 85 Calm 30.39 1029 10 16.09344 0 0
2:54 am 02:54 Clear 29 -1.7 26 -3.3 89 89 Calm 30.42 1030 10 16.09344 0 0
3:54 am 03:54 Clear 28 -2.2 24 -4.4 85 85 Calm 30.42 1030 10 16.09344 0 0
4:54 am 04:54 Clear 27 -2.8 22 -5.6 81 81 Calm 30.42 1030 10 16.09344 0 0
5:54 am 05:54 Clear 27 -2.8 22 -5.6 81 81 SSE 6 9 30.42 1030 10 16.09344 0 0
6:54 am 06:54 Clear 26 -3.3 22 -5.6 84 84 SSE 5 7 30.42 1030 10 16.09344 0 0
7:54 am 07:54 Sunny 28 -2.2 22 -5.6 78 78 Calm 30.42 1030 10 16.09344 0 0
8:54 am 08:54 Sunny 30 -1.1 26 -3.3 85 85 Calm 30.42 1030 10 16.09344 0.001 0.001
9:54 am 09:54 Sunny 37 2.8 30 -1.1 76 76 S 5 7 30.39 1029 10 16.09344 0 0
10:54 am 10:54 Sunny 46 7.8 30 -1.1 54 54 SW 6 9 30.39 1029 10 16.09344 0 0
11:54 am 11:54 Sunny 51 10.6 29 -1.7 43 43 SW 7 11 30.36 1028 10 16.09344 0 0
12:54 pm 12:54 Sunny 53 11.7 29 -1.7 40 40 SW 8 13 30.33 1027 10 16.09344 0 0
1:54 pm 13:54 Sunny 56 13.3 28 -2.2 34 34 S 10 17 30.27 1025 10 16.09344 0 0
2:54 pm 14:54 Sunny 56 13.3 25 -3.9 30 30 SSW 9 15 30.24 1024 10 16.09344 0 0
3:54 pm 15:54 Sunny 57 13.9 26 -3.3 30 30 S 12 19 30.21 1023 10 16.09344 0 0
4:54 pm 16:54 Sunny 57 13.9 26 -3.3 30 30 S 14 22 30.18 1022 10 16.09344 0 0
5:54 pm 17:54 Sunny 54 12.2 25 -3.9 33 33 S 12 19 30.18 1022 10 16.09344 0 0
6:54 pm 18:54 Clear 46 7.8 26 -3.3 46 46 S 8 13 30.18 1022 10 16.09344 0 0
7:54 pm 19:54 Clear 43 6.1 25 -3.9 49 49 SSE 5 7 30.18 1022 10 16.09344 0 0
8:54 pm 20:54 Clear 42 5.6 26 -3.3 53 53 S 5 7 30.15 1021 10 16.09344 0 0
9:54 pm 21:54 Clear 39 3.9 26 -3.3 60 60 S 7 11 30.15 1021 10 16.09344 0 0
10:54 pm 22:54 Clear 38 3.3 26 -3.3 62 62 S 7 11 30.12 1020 10 16.09344 0 0
11:54 pm 23:54 Clear 35 1.7 26 -3.3 70 70 SSE 7 11 30.12 1020 10 16.09344 0 0

Powered by AerisWeather